VHEYZ YSCB-YSSY

Flight info

Callsign VHEYZ
Flight time N/A
Altitude 23000
Route CB W423 CULIN Y59 TESAT
Aircraft VIPJ/L-SDFGRY/LB1

Departure

Time 2026-04-27 07:13
Airport Canberra Airport (YSCB)

Arrival

Time N/A
Airport Sydney Kingsford Smith International Airport (YSSY)
Time Latitude Longitude Altitude Speed Heading
2026-04-27 07:03 -35.30280 149.18578 1857 ft 0 kts 310°
2026-04-27 07:08 -35.30279 149.18578 1858 ft 0 kts 310°
2026-04-27 07:08 -35.30279 149.18576 1858 ft 0 kts 318°
2026-04-27 07:09 -35.30246 149.18590 1858 ft 4 kts 75°
2026-04-27 07:09 -35.30265 149.18631 1859 ft 4 kts 130°
2026-04-27 07:09 -35.30287 149.18665 1859 ft 13 kts 126°
2026-04-27 07:09 -35.30347 149.18753 1861 ft 13 kts 130°
2026-04-27 07:10 -35.30404 149.18835 1863 ft 11 kts 131°
2026-04-27 07:10 -35.30447 149.18892 1865 ft 7 kts 135°
2026-04-27 07:10 -35.30483 149.18938 1866 ft 9 kts 127°
2026-04-27 07:10 -35.30511 149.18977 1868 ft 0 kts 126°
2026-04-27 07:11 -35.30512 149.18979 1868 ft 1 kts 126°
2026-04-27 07:11 -35.30515 149.18991 1869 ft 0 kts 71°
2026-04-27 07:11 -35.30497 149.19002 1869 ft 3 kts
2026-04-27 07:11 -35.30495 149.19002 1869 ft 0 kts 354°
2026-04-27 07:12 -35.30454 149.18996 1868 ft 10 kts 355°
2026-04-27 07:12 -35.30342 149.18916 1864 ft 53 kts 310°
2026-04-27 07:13 -35.29827 149.18384 2108 ft 117 kts 357°
2026-04-27 07:13 -35.29012 149.18425 2919 ft 136 kts 13°
2026-04-27 07:13 -35.28180 149.18870 3951 ft 141 kts 34°
2026-04-27 07:13 -35.27283 149.19534 4851 ft 156 kts 27°
2026-04-27 07:14 -35.26281 149.19440 5772 ft 164 kts 281°
2026-04-27 07:14 -35.26984 149.19040 4771 ft 172 kts 160°
2026-04-27 07:14 -35.28096 149.19449 2527 ft 197 kts 171°
2026-04-27 07:14 -35.29276 149.19443 1905 ft 150 kts 179°
2026-04-27 07:15 -35.30072 149.19443 1878 ft 65 kts 181°
2026-04-27 07:15 -35.30280 149.19446 1877 ft 18 kts 181°
2026-04-27 07:15 -35.30383 149.19446 1877 ft 8 kts 177°
2026-04-27 07:15 -35.30436 149.19446 1877 ft 7 kts 179°
2026-04-27 07:16 -35.30492 149.19444 1877 ft 15 kts 179°
2026-04-27 07:16 -35.30750 149.19440 1877 ft 18 kts 186°
2026-04-27 07:16 -35.30757 149.19353 1875 ft 12 kts 310°
2026-04-27 07:16 -35.30710 149.19282 1874 ft 9 kts 310°
2026-04-27 07:17 -35.30670 149.19214 1873 ft 11 kts 305°
2026-04-27 07:17 -35.30614 149.19130 1871 ft 14 kts 309°
2026-04-27 07:17 -35.30529 149.19006 1869 ft 18 kts 308°
2026-04-27 07:17 -35.30452 149.18900 1865 ft 15 kts 317°
2026-04-27 07:18 -35.30388 149.18811 1862 ft 11 kts 299°
2026-04-27 07:18 -35.30426 149.18749 1861 ft 7 kts 227°
2026-04-27 07:18 -35.30421 149.18724 1861 ft 3 kts 315°
2026-04-27 07:18 -35.30417 149.18720 1861 ft 0 kts 311°